Theta_e
290 289 289 291 290 290 289 289 289 288 289 290 289 289 293 293 288 287 294 295 294 297 304 307 308 310 311 313 314 316 318 319 320 319 319 319 320 321 321 321 322 323 322 323 323 323 323 323 322 323 323 320 319 319 318 317 316 316 318 318 317 316 316 314 313 312 312 311 311 310 309 308 307 307 307 307 307 308 310 310 310 310 310 309 308 307 307
288 288 288 290 290 289 289 290 290 290 290 290 291 291 293 291 292 294 293 296 298 302 307 308 310 312 314 315 318 318 318 318 319 319 318 319 320 320 321 321 322 323 323 323 322 321 321 321 320 320 320 317 316 315 315 316 316 317 317 317 317 316 315 314 314 312 311 310 309 308 307 307 307 306 306 306 307 308 309 310 310 310 309 309 308 307 305
288 290 290 289 290 289 288 290 290 291 291 291 291 293 292 294 293 296 296 296 299 305 305 309 311 311 315 316 315 316 318 318 318 318 318 319 320 321 321 322 322 323 322 322 322 321 321 320 320 319 318 317 315 315 315 316 317 317 318 317 317 316 313 313 313 312 310 309 308 307 306 306 305 305 305 306 307 307 308 308 309 309 308 307 307 306 304
286 289 288 288 289 290 289 288 289 289 290 289 290 288 294 292 291 297 298 297 297 304 308 309 310 311 314 314 315 316 317 318 318 317 318 319 320 320 321 322 322 322 321 320 320 320 320 320 319 317 316 315 314 313 314 314 316 317 316 315 314 314 314 313 312 311 309 308 307 306 306 305 305 305 305 305 306 307 307 308 308 308 307 306 306 305 304
284 288 289 288 289 289 285 285 289 290 292 293 294 294 295 296 299 295 290 293 300 305 309 308 309 312 314 315 316 316 318 319 319 318 319 320 321 321 321 321 322 322 321 321 321 321 321 318 317 315 315 314 313 314 313 314 316 316 314 313 313 312 313 313 312 310 309 307 306 305 305 306 305 304 304 304 305 305 306 308 308 307 306 305 304 304 303
284 287 289 290 286 279 282 293 294 293 292 292 291 292 296 297 301 298 301 301 304 309 308 309 309 311 314 316 319 321 320 318 319 320 320 320 321 322 322 322 322 322 322 322 321 321 319 317 316 316 315 315 315 314 313 314 314 314 313 313 313 313 312 311 310 308 308 307 306 306 305 305 305 304 304 304 305 306 306 307 306 306 305 305 304 303 303
283 287 289 284 278 281 293 295 295 293 295 295 295 298 295 297 297 298 303 305 306 309 310 310 311 314 317 320 320 321 322 322 321 320 320 320 321 321 321 321 322 322 322 321 321 319 317 316 316 315 314 314 313 312 312 313 314 313 313 313 312 312 311 310 309 308 307 306 305 305 305 305 305 305 305 305 305 306 306 306 305 305 305 304 304 303 303
286 285 284 277 279 291 294 296 297 296 296 295 298 296 299 297 298 298 302 306 309 310 310 311 314 315 316 318 320 322 323 324 322 322 321 322 323 322 323 323 323 323 323 322 320 318 317 316 316 315 313 313 312 312 314 314 313 313 312 312 311 311 310 310 309 309 307 306 305 305 305 306 305 305 305 305 305 305 306 306 306 305 304 304 303 303 303
283 284 285 285 290 293 295 296 298 299 295 295 295 289 295 301 302 300 305 306 309 310 311 313 314 315 316 315 316 322 323 324 324 324 323 324 324 325 326 326 325 325 325 323 320 317 316 315 314 313 313 312 311 311 311 312 312 312 312 311 311 310 310 310 309 308 307 306 305 305 306 305 305 304 304 304 304 305 305 305 304 303 303 303 303 303 303
288 287 284 285 285 283 289 298 300 300 301 301 299 297 295 300 302 301 305 308 309 310 311 313 313 315 311 308 311 319 322 323 323 325 326 326 326 326 326 327 327 326 324 322 319 317 315 314 314 313 313 312 311 310 310 311 311 311 312 311 311 311 310 310 309 308 307 306 305 305 304 304 303 304 304 304 304 305 305 304 303 303 303 303 303 303 303
287 287 285 282 282 285 293 298 301 301 300 300 300 295 291 300 301 301 305 309 310 311 311 312 314 311 308 309 314 319 321 322 324 323 324 325 326 326 326 325 324 324 322 320 318 316 314 312 313 313 312 312 312 311 309 309 310 310 311 310 310 310 309 309 309 308 307 306 305 304 304 304 304 302 302 303 304 305 305 305 304 303 303 302 303 303 304
285 285 285 283 285 289 296 299 300 301 300 299 296 286 287 301 303 303 305 310 311 311 312 313 312 311 308 310 313 320 322 323 324 324 323 323 324 325 325 326 325 322 319 317 315 314 313 312 313 313 313 313 312 311 309 309 308 308 309 310 310 310 310 309 308 307 307 305 305 304 303 302 302 301 302 302 303 304 304 304 303 302 302 302 302 303 305
286 285 284 287 290 294 299 299 302 303 299 297 288 284 297 305 304 304 308 311 313 313 312 312 309 313 312 311 313 323 322 322 322 324 325 325 325 324 323 320 313 318 316 316 314 313 313 313 313 313 312 312 310 309 309 308 309 309 310 310 309 309 308 307 307 306 306 304 303 302 301 300 300 301 301 301 302 302 303 303 303 302 303 303 303 303 305
286 286 288 287 289 295 297 303 303 302 295 287 286 301 303 303 305 307 308 311 314 314 314 314 313 314 311 311 314 320 321 322 322 323 324 324 325 325 320 316 317 318 316 315 314 314 313 313 312 312 312 310 309 309 309 309 309 309 310 310 309 308 307 307 307 306 305 304 303 301 301 300 299 300 301 302 302 303 302 303 303 302 303 302 302 302 303
284 285 287 286 285 293 302 302 302 302 292 294 301 304 308 305 305 306 307 311 314 315 314 313 312 308 312 314 316 319 321 321 320 321 322 322 321 320 317 317 317 317 315 314 314 313 313 313 313 312 312 309 307 308 309 308 309 310 310 310 308 307 307 306 306 305 303 302 301 301 300 300 300 299 300 301 302 302 302 302 302 302 302 302 302 301 302
286 285 285 287 295 302 303 302 297 303 304 306 305 305 308 310 308 309 309 310 314 316 316 314 313 308 312 312 316 318 319 319 319 320 321 321 319 318 318 317 316 316 315 314 313 312 312 312 312 312 310 307 306 307 306 308 309 309 309 309 308 307 306 305 304 303 302 301 301 301 301 300 299 299 299 300 301 302 302 301 301 300 301 301 301 300 300
288 289 294 300 301 301 302 302 305 305 306 306 306 306 307 308 311 308 309 311 312 316 317 316 312 309 310 313 315 315 315 316 317 318 319 318 317 316 316 315 315 315 314 312 311 310 311 311 312 311 310 309 307 306 306 308 308 308 308 307 307 306 304 303 302 301 301 301 300 300 300 300 299 299 299 300 299 301 302 301 301 300 300 301 300 300 300
297 299 300 301 303 303 303 304 304 304 306 306 306 306 308 309 310 310 310 311 311 312 317 316 311 310 310 312 313 314 314 315 316 317 318 317 317 317 317 316 315 315 314 312 311 310 310 311 311 311 312 311 309 307 307 308 309 309 308 306 305 305 304 303 302 301 300 299 299 300 300 301 301 300 300 300 300 300 301 301 301 300 299 300 300 300 299
294 292 301 302 301 303 304 303 307 308 306 306 306 307 309 310 309 308 309 308 309 310 315 316 314 310 309 311 312 313 314 314 314 315 315 315 315 314 314 314 313 314 312 310 309 308 308 310 311 310 311 312 310 307 307 308 308 308 308 307 305 304 304 303 302 302 300 299 299 300 301 301 301 300 300 300 300 299 300 300 300 300 299 299 299 299 298
294 294 300 301 302 302 303 303 303 304 305 306 308 307 307 308 309 308 309 309 310 311 313 315 313 311 311 312 312 313 313 313 314 314 314 314 314 315 314 313 313 313 312 309 308 308 307 308 309 308 309 308 307 307 308 308 308 308 306 306 305 305 305 304 303 302 300 293 296 299 299 300 299 299 300 301 300 299 300 300 299 299 299 298 298 298 298
297 299 301 302 302 304 306 306 306 306 304 304 307 308 308 309 312 311 311 310 310 312 312 314 314 311 311 313 313 313 313 312 313 313 313 314 313 312 312 313 312 312 311 309 309 309 308 309 308 308 308 306 306 307 307 308 308 307 305 304 305 305 304 303 302 301 299 298 298 298 299 299 300 300 300 300 300 301 302 302 302 300 300 300 300 300 299
293 295 299 300 297 295 304 306 306 305 306 305 307 309 310 309 309 309 310 310 310 310 312 315 315 312 311 313 315 314 315 314 313 312 312 312 311 312 312 313 313 313 312 311 310 310 309 309 308 308 306 306 306 307 308 308 308 306 305 305 305 304 304 303 302 300 299 298 298 298 298 298 298 298 290 291 297 301 300 293 291 294 295 300 301 301 300
295 301 302 302 302 303 304 305 306 306 306 306 308 307 307 308 308 307 310 310 309 309 311 312 314 313 312 313 315 314 314 314 315 315 313 312 311 311 312 312 311 311 311 311 310 309 309 309 309 307 305 305 306 306 307 307 307 306 306 304 304 304 303 302 300 300 299 298 298 298 299 298 298 297 297 296 289 289 293 292 292 289 289 289 292 293 299
302 303 303 303 303 304 306 307 306 306 306 306 308 308 308 308 308 308 309 310 310 308 310 311 313 312 311 312 312 311 312 313 314 314 314 313 312 311 312 312 312 312 311 310 308 306 307 308 308 307 306 305 305 306 307 307 306 306 305 304 303 304 303 302 299 300 300 299 298 298 298 298 298 298 297 296 296 290 289 290 289 289 289 288 289 289 290
302 303 303 304 304 305 307 306 306 306 306 305 307 307 306 308 308 308 310 310 311 312 311 311 311 313 312 312 313 312 312 312 312 311 310 309 309 311 311 311 311 311 311 310 308 307 306 305 305 305 305 304 305 306 306 306 306 305 305 305 304 304 303 301 300 299 299 298 298 298 298 298 298 298 297 296 295 295 293 289 289 289 288 288 288 288 288
302 303 303 303 303 304 305 304 307 307 306 305 307 308 307 306 307 308 306 309 310 311 312 311 310 311 313 312 312 313 313 312 311 309 312 310 310 310 310 310 310 310 309 308 306 305 305 304 304 304 303 304 306 306 306 305 305 305 304 304 304 304 302 301 301 300 299 299 298 298 299 298 299 298 298 298 298 297 295 294 294 291 289 288 288 287 287
301 301 301 303 304 305 305 306 305 305 304 305 305 306 306 307 306 308 308 309 309 309 310 310 311 311 312 312 311 313 312 310 311 312 312 311 310 310 311 311 310 309 307 306 306 304 301 303 303 303 303 304 305 306 305 305 304 303 303 304 304 296 292 295 301 300 300 300 299 299 298 298 298 298 299 299 299 298 297 296 297 297 297 294 289 288 290
300 301 302 304 303 304 304 303 303 303 304 304 305 306 306 308 309 308 308 308 308 309 309 310 311 311 310 311 311 309 309 311 311 310 310 311 311 311 309 308 307 306 306 305 304 302 301 302 303 302 302 303 304 305 305 305 304 303 303 302 301 300 300 299 300 300 300 300 300 299 298 299 299 299 299 298 298 298 298 299 299 299 298 298 294 289 287
300 300 301 301 301 302 303 303 304 304 305 305 306 306 308 309 308 307 306 305 305 307 308 308 309 310 310 310 311 311 311 311 310 310 310 310 310 309 308 307 306 305 304 303 302 302 303 303 304 303 302 304 304 305 305 305 304 302 301 300 300 300 300 301 301 300 300 300 300 300 294 297 299 299 299 298 298 299 299 300 299 300 299 295 294 292 290
300 301 302 302 303 303 304 303 302 303 303 303 305 305 305 308 307 305 304 305 306 307 306 307 309 308 309 309 309 311 310 311 310 310 309 309 308 308 306 305 304 303 302 301 301 301 302 303 303 302 302 304 304 305 305 302 301 300 299 299 299 299 300 300 300 299 299 299 298 291 296 297 299 299 298 299 299 298 299 298 299 298 298 295 292 293 292
300 301 302 303 303 303 302 301 302 302 303 304 304 304 304 305 305 304 303 303 305 305 306 307 308 308 308 308 308 309 310 310 309 309 308 308 308 307 306 306 304 301 301 302 302 303 302 302 302 302 303 303 302 302 303 303 302 301 300 300 300 294 291 291 293 299 298 296 295 296 296 297 298 297 295 297 297 298 298 298 296 296 296 296 295 294 294
302 302 302 302 303 303 302 303 303 302 302 303 303 301 300 301 302 302 302 303 303 302 305 307 308 307 307 307 309 309 309 308 307 307 307 307 307 306 306 307 306 301 304 303 303 304 303 302 301 300 301 302 302 302 302 300 299 299 300 295 298 296 292 290 295 295 296 296 295 295 295 297 297 298 296 295 296 296 297 296 296 295 296 295 295 296 295
301 301 301 302 303 303 302 302 302 302 302 301 299 300 301 300 300 300 301 302 305 305 306 306 305 306 306 307 308 308 307 305 304 304 305 305 306 306 307 307 306 305 304 303 303 303 303 302 302 303 303 303 303 303 302 299 298 298 298 297 296 295 290 290 292 295 294 294 295 296 296 296 297 296 296 295 296 295 296 295 294 294 295 295 296 296 294
301 300 299 300 301 301 301 300 301 301 301 300 301 301 301 300 299 300 301 303 304 304 304 304 305 305 306 307 307 307 306 304 302 302 302 303 304 306 306 305 305 304 303 303 304 304 303 303 303 303 303 303 303 302 301 300 299 298 297 297 294 293 293 294 292 294 294 293 295 293 295 296 296 297 295 294 295 295 294 294 294 293 294 295 295 294 290
301 299 300 300 300 300 300 300 300 300 301 301 301 300 299 299 300 300 296 301 301 301 303 305 305 304 303 303 305 306 307 307 306 304 302 302 303 305 306 306 305 304 302 302 303 303 304 303 301 301 301 301 301 301 301 300 298 297 296 295 294 295 294 293 294 295 294 294 294 294 294 295 295 292 293 295 295 294 293 293 294 293 294 293 293 293 291
303 302 301 301 300 300 300 300 300 300 299 298 296 296 297 298 299 300 300 301 301 302 304 304 304 303 303 303 303 304 304 304 304 304 303 302 302 303 304 304 303 302 301 301 303 303 302 302 293 293 299 299 299 299 299 297 297 296 295 294 293 293 293 293 294 294 295 295 294 293 293 292 293 293 293 293 294 294 294 293 293 293 293 293 293 292 292
301 302 301 300 300 301 301 300 299 299 297 297 297 297 298 298 298 298 298 300 302 302 303 304 305 304 302 301 301 301 302 303 303 302 301 301 301 302 302 302 303 303 302 300 301 302 302 300 291 290 296 298 298 298 296 290 296 295 294 295 295 294 294 294 295 294 292 293 292 293 291 291 292 292 291 292 293 293 293 293 291 292 291 292 292 292 292
299 301 301 301 300 301 300 299 297 298 299 299 298 297 295 297 297 297 299 299 299 300 300 303 304 303 301 301 301 302 301 301 302 301 301 301 302 301 301 301 302 302 301 302 303 302 301 295 289 294 299 299 298 297 293 289 290 295 295 294 294 294 294 294 294 293 292 293 291 293 292 292 291 291 291 291 291 291 291 291 291 291 291 292 292 293 293
300 299 299 299 300 301 301 300 300 300 300 300 300 300 298 296 298 298 300 300 300 297 301 303 303 303 302 301 300 299 300 302 302 301 301 302 302 302 301 303 303 303 303 304 303 302 297 293 297 300 299 299 298 296 291 288 289 295 295 295 294 294 293 293 292 291 291 292 291 291 292 291 291 290 290 290 291 290 289 291 291 290 291 292 292 293 295
300 301 300 300 301 301 301 301 300 299 299 299 299 299 298 298 301 301 301 301 301 298 301 302 303 302 302 301 300 300 301 302 302 302 302 302 301 301 301 301 302 304 302 295 301 299 294 291 297 300 299 298 297 295 292 290 291 295 295 295 294 293 293 292 292 291 290 290 289 288 290 290 290 290 290 290 290 290 291 290 290 291 292 293 294 294 294
300 300 299 300 301 300 301 301 300 299 298 298 299 299 300 300 300 300 299 299 300 301 302 302 302 301 301 301 300 300 300 301 302 302 303 302 301 301 301 301 300 300 301 302 302 297 293 295 299 300 299 298 297 292 293 290 295 296 295 294 294 293 293 292 291 291 290 290 290 290 290 289 289 289 289 290 290 291 292 291 291 293 294 294 294 294 294
300 298 298 299 300 300 300 299 299 300 300 299 298 300 301 300 299 298 298 299 301 301 301 300 294 301 301 300 299 299 299 300 301 301 302 301 300 300 300 301 300 300 295 293 293 295 299 300 299 295 298 297 294 289 289 293 296 296 295 294 294 293 293 292 292 291 291 291 291 292 291 290 289 289 288 289 290 290 291 291 291 291 292 293 294 294 295
299 299 300 300 300 298 299 299 299 299 300 300 300 299 299 300 301 301 300 299 299 300 300 300 298 297 299 300 299 299 299 300 300 300 301 302 302 303 303 302 300 297 289 296 300 301 302 302 301 300 293 294 293 288 289 296 295 295 294 294 293 293 293 292 292 291 291 291 291 292 291 290 290 289 289 289 289 290 290 291 291 292 292 293 294 295 295
298 298 299 300 299 298 298 300 300 300 300 300 299 298 299 300 300 299 300 300 300 299 299 300 300 299 299 300 300 300 299 299 300 301 301 301 301 302 303 301 298 293 290 297 300 301 301 301 301 294 288 288 287 288 295 296 295 294 294 293 293 293 293 293 293 292 291 292 291 291 291 289 290 290 290 290 290 291 290 291 292 293 293 294 296 296 296
299 298 299 300 299 299 299 300 301 300 299 299 298 298 298 298 298 299 299 300 299 299 298 299 299 300 300 300 300 301 301 302 302 301 299 297 297 298 299 292 295 294 294 293 300 300 301 300 293 288 288 287 287 289 296 296 295 295 294 294 294 294 293 293 292 292 292 292 291 292 291 291 291 291 292 292 291 291 291 291 292 293 293 294 295 295 295
299 299 299 295 300 300 300 300 299 298 299 299 299 297 296 298 298 298 298 299 300 300 300 300 300 300 300 300 300 300 301 300 301 301 301 300 298 299 297 293 295 293 291 292 299 299 297 288 287 287 287 287 288 294 295 294 294 295 295 295 295 293 293 293 292 292 292 291 291 291 291 292 292 293 293 293 292 292 292 291 292 294 295 296 296 297 297
299 299 300 301 300 299 298 297 296 299 300 300 299 298 297 298 297 299 298 298 299 300 301 301 301 301 302 302 301 300 300 300 300 300 300 300 297 295 292 291 289 289 293 298 297 296 293 290 288 287 287 288 290 297 296 295 294 294 295 295 295 294 293 293 293 293 293 293 291 291 290 292 292 293 293 291 293 293 292 292 294 294 295 294 295 293 293
301 301 301 301 300 298 298 298 299 300 299 299 299 298 298 297 297 298 298 298 299 300 301 301 301 301 302 302 302 303 302 301 298 299 299 299 298 296 296 297 295 290 290 289 289 288 287 287 287 287 287 288 294 296 295 294 293 293 294 294 294 294 294 294 294 294 294 293 292 292 292 293 293 292 292 292 293 293 294 293 294 294 294 295 296 295 295
301 301 301 300 300 299 300 300 300 299 300 299 298 299 297 296 297 297 297 297 298 299 300 301 301 301 302 301 301 303 302 302 301 299 299 299 298 297 296 291 288 288 292 294 293 291 287 287 287 287 288 290 297 296 295 294 292 293 293 294 294 294 294 294 294 294 294 293 292 292 293 293 293 292 292 292 293 294 293 294 295 295 293 294 293 292 292
301 302 301 301 301 301 301 300 300 300 300 299 300 299 298 298 299 299 298 298 297 296 299 300 301 301 302 302 303 302 302 301 300 300 298 298 298 296 296 296 296 291 291 295 293 290 286 286 287 288 291 296 296 295 294 293 293 293 292 292 292 293 292 292 290 290 292 292 293 293 292 292 293 292 292 293 295 294 294 294 293 288 286 288 290 290 290
300 300 302 301 301 300 299 300 300 300 300 300 300 299 298 298 298 297 297 297 299 297 298 298 299 300 301 301 301 302 301 300 298 295 298 297 296 293 292 294 294 292 293 293 293 292 292 293 294 291 293 294 294 294 293 293 292 291 291 292 292 292 290 289 291 292 293 293 293 293 292 292 292 293 293 293 292 293 291 291 290 290 290 290 289 289 288
299 300 300 299 300 300 300 299 299 299 299 298 300 299 299 299 298 298 298 290 298 299 299 298 297 298 300 300 300 300 299 298 297 297 294 296 296 296 293 291 294 292 294 295 295 295 295 293 290 290 291 294 294 293 289 289 293 292 291 290 290 291 290 290 289 290 291 291 292 293 292 293 294 293 293 292 291 291 289 289 289 289 288 288 287 286 286
Wind_Speed
8 6 6 17 15 15 13 16 13 13 13 9 12 12 7 6 5 5 2 2 4 5 3 3 6 5 5 7 8 8 9 11 12 13 13 13 13 13 13 14 14 16 15 13 13 13 13 14 14 13 12 11 11 10 12 12 12 14 12 14 17 15 11 12 10 9 9 9 9 10 10 9 9 9 9 8 7 7 8 8 8 9 10 11 11 11 11
2 7 7 8 18 13 15 16 14 14 11 13 12 13 6 7 8 4 4 2 9 5 2 4 5 5 5 5 7 8 11 13 14 14 14 14 13 17 14 13 14 14 15 14 13 13 14 15 15 13 13 11 10 13 13 13 11 9 11 15 16 13 14 15 14 11 10 9 9 9 10 10 9 9 8 8 8 8 9 9 9 9 10 10 11 11 11
2 2 6 7 13 13 16 13 14 12 11 11 12 7 3 3 8 3 1 2 7 2 2 3 4 4 6 7 8 10 10 11 13 14 15 14 12 15 15 13 14 14 14 14 14 14 15 15 16 14 13 12 12 14 14 15 12 11 13 15 13 15 14 14 15 13 11 11 11 10 10 9 9 9 9 8 8 9 9 9 9 9 10 11 10 10 11
2 2 10 9 11 15 13 11 11 12 12 11 6 4 6 6 10 2 2 5 7 3 4 3 5 7 9 9 10 10 9 11 12 14 14 13 12 12 13 14 14 13 13 14 14 15 14 15 15 15 14 12 12 13 10 13 12 13 12 12 14 15 16 16 15 12 11 11 11 11 11 10 10 9 9 9 9 9 9 10 9 9 10 10 10 10 10
1 2 6 10 9 9 5 6 12 13 11 7 6 1 3 11 5 4 5 10 3 2 5 6 6 9 9 9 10 9 9 10 11 10 11 12 11 9 12 12 13 12 12 14 14 14 13 12 14 12 14 14 14 15 9 7 12 12 11 10 12 14 15 16 15 11 9 10 10 10 10 10 9 9 9 9 9 9 10 9 10 10 10 10 10 10 12
1 4 11 10 9 8 4 2 1 10 11 11 9 8 9 9 7 4 2 3 2 2 5 6 8 9 10 10 10 10 11 11 11 10 10 10 9 9 9 11 13 11 10 11 12 14 13 12 13 12 13 14 13 12 12 11 10 10 14 11 12 13 14 14 14 12 8 9 10 10 11 10 10 10 9 9 9 8 9 9 9 10 10 10 10 11 12
3 5 11 9 6 2 4 2 1 1 2 1 8 3 1 4 2 2 1 1 2 4 3 4 5 7 5 8 11 11 12 12 13 14 13 14 13 13 11 13 13 13 14 14 13 12 12 13 11 11 9 11 13 12 13 13 10 11 12 17 15 16 16 15 15 13 12 11 12 11 11 11 10 10 10 10 10 9 9 9 10 10 10 10 10 11 11
2 3 7 5 2 2 2 3 3 1 1 1 4 4 4 3 4 2 2 3 3 3 3 3 5 5 4 4 3 9 12 12 13 14 13 15 16 17 15 15 15 15 15 15 15 13 11 13 12 11 12 11 12 12 7 11 16 12 12 15 15 15 15 16 14 14 12 12 12 11 11 11 11 10 10 10 10 8 8 8 8 8 8 9 11 11 11
4 1 3 3 1 2 4 1 2 1 1 2 1 3 1 2 1 3 3 5 4 3 4 5 6 6 5 3 4 7 11 11 12 13 14 16 16 16 13 13 14 13 12 12 12 12 11 12 12 11 12 11 13 13 12 14 13 13 12 13 15 14 15 15 12 12 12 13 13 12 11 11 11 10 10 9 9 8 9 8 9 9 9 9 10 11 11
0 8 8 5 2 2 0 1 1 3 3 3 3 1 3 1 1 3 5 7 7 6 7 7 9 8 7 6 9 11 11 8 7 8 10 13 13 12 13 12 12 11 12 12 13 13 12 13 12 13 12 11 13 13 12 10 12 14 12 13 15 15 14 13 12 12 11 12 12 12 11 11 10 9 9 8 9 8 10 10 9 9 9 10 9 10 10
1 4 6 2 2 2 1 2 3 1 2 3 4 2 4 1 0 3 6 7 8 8 9 10 10 9 7 7 6 10 13 11 9 8 10 11 12 14 14 14 14 14 11 14 14 14 14 14 11 13 14 15 15 17 16 13 11 12 10 11 12 13 12 11 12 11 9 11 12 12 12 11 10 10 9 9 8 8 8 8 8 8 9 10 9 8 8
1 2 3 3 0 2 1 3 4 4 0 5 4 7 3 3 0 3 6 8 9 9 10 10 10 8 1 1 1 9 14 15 12 11 11 11 12 13 13 13 15 14 13 14 13 14 15 15 14 14 13 12 17 18 14 12 11 11 10 12 12 12 12 11 10 10 10 11 10 11 11 10 9 8 8 8 9 9 8 8 9 9 9 9 10 8 7
2 4 2 1 1 1 2 4 7 3 3 3 6 4 2 3 2 3 6 8 9 10 10 10 9 6 4 5 6 10 12 11 11 11 10 12 13 14 13 13 14 13 12 13 13 14 11 14 15 15 11 15 17 17 16 15 13 11 13 14 14 14 12 12 12 11 10 10 9 8 10 10 8 8 8 9 9 9 9 8 9 9 9 9 8 7 5
2 1 4 2 1 0 4 4 6 3 2 4 1 3 1 4 6 2 5 7 9 9 10 9 6 2 6 7 6 11 12 13 11 12 12 12 12 14 12 14 13 13 12 11 12 11 11 14 13 12 13 14 13 14 13 12 11 14 14 15 14 13 13 13 12 11 11 10 10 8 9 11 10 9 8 9 9 9 8 9 10 10 9 8 7 6 5
1 1 4 2 4 1 4 12 1 1 1 2 2 3 1 2 4 5 2 6 7 8 8 3 3 2 3 1 6 11 12 12 12 12 13 13 13 13 13 12 12 14 12 12 12 13 11 15 14 15 17 16 14 12 12 12 12 16 16 16 14 14 13 13 12 12 11 11 10 9 9 10 12 11 9 9 9 9 10 10 10 10 9 8 8 7 6
1 1 2 2 1 4 4 6 3 4 3 3 2 1 3 3 2 3 2 3 6 8 9 7 3 2 2 4 4 7 8 9 9 10 10 11 11 12 12 11 11 12 13 11 10 12 11 10 13 13 14 15 14 14 13 11 14 15 16 14 14 13 12 12 12 11 11 11 10 9 10 10 11 11 10 9 9 9 10 10 9 9 8 8 8 8 7
1 2 2 2 2 4 3 1 2 2 3 2 2 2 3 4 4 1 3 1 3 8 9 6 3 3 4 4 4 4 5 7 8 10 10 11 12 12 12 11 11 10 12 12 11 11 10 13 12 12 12 16 16 15 12 15 14 16 13 13 13 13 13 12 12 11 11 10 10 10 9 10 11 10 11 10 9 9 10 9 9 9 8 9 9 8 7
2 2 1 3 1 3 4 0 3 3 1 1 2 2 1 1 3 4 4 5 2 3 7 6 2 4 5 4 5 6 5 6 7 8 9 10 11 12 11 10 10 9 11 13 15 14 12 10 12 12 12 17 19 13 15 14 15 14 15 14 13 13 12 12 12 12 12 11 10 10 10 9 10 10 11 10 9 9 9 9 9 9 9 9 8 8 8
1 3 7 7 6 6 6 7 5 3 2 1 1 2 0 2 2 4 5 5 3 1 5 7 6 4 5 6 6 7 7 7 8 9 9 10 11 11 11 10 9 9 10 10 12 14 15 9 9 8 11 9 13 14 14 13 14 14 15 14 14 13 13 12 12 12 13 10 9 9 9 8 8 9 9 9 9 9 9 9 9 9 8 8 8 8 8
2 3 2 4 3 3 4 4 7 9 11 11 7 4 2 2 1 1 4 3 2 2 5 6 7 7 6 8 7 7 7 7 8 9 11 11 9 8 10 11 10 9 10 11 10 10 11 10 10 10 10 10 11 11 14 14 14 14 13 14 14 14 14 12 11 11 11 13 12 9 8 9 9 9 9 9 9 9 10 10 10 9 9 9 9 9 9
2 1 2 4 1 3 5 4 4 5 6 8 10 9 7 6 6 6 6 6 4 3 6 7 9 9 7 8 9 9 8 8 7 8 10 11 10 9 9 10 12 10 10 11 12 12 10 9 9 10 9 9 10 13 14 14 15 15 13 14 13 14 12 11 10 10 10 11 9 9 8 8 8 9 9 9 8 7 6 7 9 11 9 8 8 9 9
2 2 2 4 0 2 4 6 9 10 8 6 6 7 8 9 8 8 7 9 7 6 4 4 7 9 9 8 9 9 9 11 12 10 9 7 9 8 7 7 8 10 12 12 11 11 11 10 10 10 11 9 9 11 13 14 14 14 14 13 13 13 11 11 10 10 10 10 10 9 9 8 8 6 11 9 4 7 8 4 5 2 6 8 8 8 8
2 0 2 1 2 2 3 5 7 6 6 5 7 8 7 7 6 6 6 7 8 8 6 4 4 5 6 7 6 6 6 7 10 12 13 11 8 8 9 8 7 8 7 7 8 9 9 9 9 9 11 12 11 9 11 13 14 15 15 12 10 11 11 10 11 10 10 10 9 9 9 9 9 9 7 5 11 11 7 7 6 7 7 6 5 5 6
1 1 2 1 2 1 3 5 5 6 6 4 6 7 6 6 6 5 6 5 7 6 5 5 5 8 8 7 6 8 8 7 9 11 11 12 12 10 10 11 11 10 9 9 9 10 9 8 8 6 8 10 12 12 12 13 12 13 14 13 12 11 10 10 11 10 9 10 10 9 9 9 9 9 9 8 5 8 7 8 7 7 6 5 6 5 1
1 0 2 2 3 4 3 3 2 5 6 5 5 7 6 6 5 4 5 5 3 4 5 5 4 4 7 8 8 10 10 10 10 9 9 10 11 10 9 9 11 11 10 9 8 9 9 10 9 11 8 6 8 10 8 9 10 12 13 12 12 11 10 11 11 10 10 10 10 10 10 10 10 10 10 9 9 7 6 7 6 6 6 6 7 7 4
4 4 3 2 2 2 3 3 2 7 7 6 4 6 6 6 6 7 7 4 3 2 4 4 5 4 3 5 5 8 10 11 13 12 10 9 8 8 10 11 9 7 7 8 10 10 10 11 11 9 10 10 9 10 9 11 12 12 10 10 12 11 11 12 11 10 10 10 10 10 9 10 9 10 9 9 9 8 8 7 5 5 5 4 7 8 5
2 2 2 2 1 3 6 5 3 6 6 5 4 4 4 5 6 7 6 6 5 5 4 4 4 4 3 4 6 5 8 9 8 8 10 12 11 8 8 9 10 10 11 10 9 11 11 10 9 9 9 8 9 9 11 11 11 10 9 9 9 10 15 13 9 9 9 9 9 9 9 9 9 9 9 8 8 9 9 8 8 8 6 4 5 7 5
2 3 2 1 1 3 3 3 2 3 4 5 5 4 3 2 5 7 7 6 6 6 6 5 3 3 4 4 4 6 7 10 9 6 6 9 9 8 8 10 10 10 8 8 9 10 11 11 10 10 9 8 7 7 8 9 10 10 9 9 9 10 10 11 9 9 9 9 9 9 10 9 9 9 8 8 8 8 7 7 7 7 6 5 5 5 3
5 4 3 3 3 2 1 1 3 6 7 6 4 5 4 7 8 8 8 6 3 3 5 6 4 3 3 3 2 5 6 7 8 8 6 5 6 7 8 9 9 8 8 8 8 8 9 10 11 11 9 9 9 8 8 7 6 9 7 8 8 9 9 9 9 8 8 9 9 9 10 9 8 8 8 8 7 7 7 7 7 6 6 6 6 5 4
4 3 3 4 3 2 4 7 6 6 6 6 7 8 8 7 8 8 6 6 5 5 3 2 4 4 3 3 2 3 5 6 6 5 6 7 8 9 10 10 10 8 7 7 7 8 9 8 9 10 9 10 9 9 9 12 10 8 10 8 8 9 8 9 8 8 8 8 8 10 9 8 8 8 8 8 8 7 7 7 7 6 7 7 8 8 8
2 4 5 4 6 7 9 5 5 5 5 6 6 7 8 7 7 7 7 6 6 5 4 3 3 4 4 3 3 2 3 4 5 6 6 6 7 8 10 11 11 9 10 10 10 10 9 9 7 7 8 9 9 9 8 8 10 9 7 5 5 9 13 14 11 10 8 8 9 9 8 8 8 8 8 8 7 6 6 6 6 6 7 7 7 7 7
4 6 7 6 5 7 7 5 6 7 6 5 9 10 8 8 7 6 6 5 5 4 3 4 4 3 3 3 4 5 5 4 5 5 6 6 7 7 7 5 5 6 7 8 7 7 7 8 9 8 9 9 9 9 10 10 11 11 9 8 8 6 6 11 8 8 9 9 9 9 9 9 8 8 8 8 8 7 6 6 6 5 6 7 7 7 7
2 5 6 6 7 8 8 6 6 7 7 8 6 4 5 4 4 4 4 3 3 3 4 3 2 2 1 3 4 5 5 5 5 5 5 6 6 6 6 4 5 7 8 7 9 9 10 10 9 10 11 11 10 10 8 10 10 10 9 8 8 8 9 9 8 8 7 7 8 9 9 9 8 8 8 8 7 7 6 6 6 6 6 7 7 6 7
6 6 4 4 4 5 6 5 4 4 4 4 4 4 5 5 5 5 5 4 5 6 6 4 3 1 1 2 4 5 6 6 5 4 3 5 6 6 5 5 6 6 6 8 8 6 6 7 8 9 9 10 11 9 8 9 9 8 9 9 7 8 8 7 9 7 7 7 6 7 7 8 8 8 7 7 6 6 6 6 6 6 6 5 5 5 6
5 4 4 4 4 4 4 4 4 4 4 5 4 5 5 5 5 4 4 5 6 5 4 3 2 1 2 1 2 4 4 3 4 6 6 5 5 6 6 7 7 7 6 6 7 6 6 8 9 9 8 8 9 8 8 9 9 9 9 9 10 8 7 7 8 8 8 7 7 7 6 7 6 6 7 7 6 6 6 6 6 6 6 6 5 5 5
4 6 5 4 4 3 4 4 4 3 4 4 3 3 4 4 5 5 6 5 3 3 2 2 2 1 1 2 2 2 3 3 4 5 6 6 5 5 5 7 8 7 7 5 4 5 7 7 10 12 9 8 7 7 8 8 8 9 10 10 8 8 7 7 7 6 6 6 7 6 6 7 7 7 7 6 5 6 6 6 6 5 6 6 6 6 6
3 4 3 3 2 3 4 4 4 4 5 4 4 4 5 5 4 4 3 4 3 3 3 2 2 2 0 1 1 1 1 3 4 5 5 6 6 6 6 7 8 8 8 8 8 6 7 8 11 13 9 7 8 8 10 12 8 7 8 8 9 8 8 7 7 8 7 7 7 6 6 6 6 6 6 6 6 6 5 5 5 5 5 5 6 7 6
2 3 4 3 2 3 3 2 2 3 3 4 3 3 4 4 4 4 4 3 3 4 3 3 2 1 1 1 1 2 1 1 4 6 6 7 7 7 6 6 6 6 6 5 8 8 6 10 14 10 7 7 8 7 10 13 12 9 8 8 8 9 9 8 8 8 9 8 8 8 9 8 7 6 6 5 5 5 5 5 5 5 5 5 5 6 6
3 2 2 1 2 2 3 2 2 2 4 5 4 4 4 4 3 3 3 3 3 4 2 2 2 2 1 1 2 1 2 2 3 5 6 7 6 6 5 4 5 4 2 6 9 7 8 11 10 7 7 6 8 7 9 12 13 8 7 7 8 8 8 7 6 6 6 7 7 7 6 6 6 6 5 5 5 4 4 5 6 5 5 5 5 4 4
2 2 2 1 3 2 3 2 2 3 2 2 4 5 5 5 5 4 3 3 3 3 2 1 1 1 1 1 2 2 2 3 4 5 6 6 5 5 5 4 3 3 5 9 7 7 10 13 9 6 6 7 8 7 8 11 10 7 8 7 7 7 7 6 6 6 5 5 6 7 6 7 6 6 5 5 5 5 5 5 5 5 4 4 3 3 3
1 0 0 1 2 2 2 2 2 2 2 2 3 4 4 5 5 4 4 4 4 3 3 2 1 1 1 1 1 1 2 2 3 5 5 6 5 4 4 4 3 4 6 7 7 8 12 9 8 7 6 7 7 9 8 10 8 7 7 7 7 7 7 7 7 6 6 6 6 7 7 6 6 7 6 6 6 5 5 5 5 4 4 4 3 3 3
1 1 1 0 1 1 1 1 0 1 2 2 3 4 5 5 5 4 3 3 3 3 3 3 4 2 2 3 3 3 3 2 3 4 4 3 4 5 4 3 4 5 6 8 9 9 9 8 7 7 7 7 8 12 11 9 6 6 6 6 6 7 7 7 7 7 6 6 6 5 5 6 6 6 6 5 5 5 5 5 4 4 3 3 3 3 3
2 2 1 1 1 1 0 0 1 1 1 1 2 3 4 5 4 4 3 2 2 3 3 2 3 2 2 3 4 4 4 4 4 4 3 3 3 1 0 4 5 5 8 7 8 9 10 9 7 6 9 11 10 14 12 7 6 6 6 5 5 6 6 6 6 5 6 5 5 5 6 6 6 7 7 6 6 5 5 5 5 4 3 3 4 4 4
1 1 1 1 2 2 1 0 0 0 1 2 1 2 3 3 4 4 4 3 2 2 3 2 2 2 2 2 3 3 4 5 6 5 5 4 3 3 3 5 5 6 8 7 8 9 8 9 7 9 11 12 14 13 8 6 7 7 7 6 6 6 6 6 6 6 6 6 6 6 6 7 6 6 6 6 5 5 5 4 3 3 4 4 4 3 3
1 1 1 1 2 1 0 0 2 2 2 1 1 1 2 3 4 4 4 4 3 3 2 2 1 1 2 2 2 2 2 3 4 5 5 4 4 2 3 6 7 7 6 7 7 8 8 7 9 12 11 13 13 10 6 5 5 5 6 6 6 6 6 5 6 6 6 6 6 5 5 5 5 6 5 6 6 5 5 5 5 5 5 4 4 4 4
2 2 1 1 1 1 1 1 1 0 0 1 0 1 1 2 3 3 3 3 3 3 3 2 1 1 1 2 3 4 5 4 3 3 2 1 0 3 6 6 6 6 8 9 8 7 7 10 13 12 14 13 12 8 6 6 5 5 5 5 5 5 5 5 6 6 6 6 6 6 6 5 4 4 4 4 6 6 6 6 4 4 4 4 4 3 3
2 2 2 1 1 1 1 2 2 1 0 2 3 3 2 2 2 2 3 3 2 2 3 2 2 1 0 2 3 4 5 5 3 2 2 2 4 7 7 7 7 9 8 7 6 7 8 8 10 13 13 12 9 5 6 6 6 6 5 5 5 6 6 5 5 5 5 5 5 5 4 4 3 3 4 4 4 4 4 5 4 4 4 3 3 3 3
2 2 2 2 1 2 2 3 1 1 2 2 1 1 1 1 2 2 2 2 2 2 2 2 2 1 0 0 1 1 1 4 4 3 2 3 5 7 7 7 7 8 9 8 8 7 10 12 13 13 12 10 7 5 5 5 6 6 5 4 5 4 5 5 5 5 4 4 4 3 3 3 3 3 3 4 4 4 4 4 4 4 4 4 4 4 4
0 1 1 1 1 2 1 0 1 2 1 0 1 0 1 1 1 1 2 2 2 2 2 3 2 1 1 1 0 0 1 1 1 2 4 4 6 7 7 7 8 10 9 7 7 5 9 12 11 12 11 8 5 5 5 5 6 6 5 5 5 4 4 3 3 4 4 4 4 4 4 4 4 4 5 5 4 4 4 3 3 3 2 4 4 4 4
0 1 2 1 1 1 1 0 1 2 1 0 0 0 1 1 0 0 1 2 2 2 1 1 1 1 1 1 1 1 1 2 2 4 6 6 7 7 7 7 7 7 8 8 8 7 6 10 10 9 8 5 4 5 4 4 4 4 4 4 4 4 4 4 4 4 4 4 3 4 4 4 4 5 4 4 4 4 4 3 3 5 8 6 5 4 5
1 1 1 1 0 0 0 1 1 1 1 1 0 1 1 1 1 1 1 1 1 1 1 1 1 2 1 1 1 1 2 2 3 5 6 6 6 6 6 6 7 7 7 8 7 7 6 5 5 4 5 5 5 5 4 4 3 4 4 4 4 4 4 4 4 4 4 5 5 5 5 4 5 5 4 3 4 4 4 5 5 4 3 3 4 4 5
1 1 1 1 1 1 1 1 2 2 1 1 1 1 1 1 0 1 1 2 1 0 1 1 1 2 1 0 2 2 2 3 4 5 5 6 7 7 7 7 7 7 7 7 8 7 6 6 5 4 4 6 5 5 3 4 4 3 3 4 4 4 5 5 5 5 4 5 3 4 5 5 5 5 4 4 4 5 5 4 4 4 5 5 5 6 6
Wind_Direction
226 220 180 155 163 170 169 179 172 180 185 173 190 212 208 165 214 224 11 115 211 271 299 193 212 205 197 187 177 174 168 165 164 166 164 168 164 154 149 151 149 147 149 147 143 142 141 140 138 136 131 117 121 128 134 141 149 145 139 135 138 141 140 127 122 117 109 103 110 116 111 109 110 112 112 109 113 114 114 112 112 116 118 115 112 108 107
229 194 199 191 160 161 170 183 181 182 166 183 189 211 185 207 252 16 297 287 246 268 275 200 197 195 177 176 169 166 170 170 168 168 169 169 159 154 153 152 149 147 147 144 143 143 144 144 140 134 132 129 132 135 138 147 146 136 128 136 138 139 137 137 134 126 114 111 112 115 115 115 113 112 111 111 110 110 110 113 114 116 113 113 113 115 115
160 184 177 193 161 161 175 177 182 176 173 183 195 192 154 295 288 235 333 288 288 285 207 183 177 188 179 159 171 174 168 166 166 172 172 167 156 154 150 149 151 145 145 145 148 148 149 147 144 139 135 135 135 142 151 156 148 137 137 136 129 136 137 139 138 131 128 133 130 121 116 111 112 112 110 110 109 109 111 113 114 115 116 114 113 114 116
132 96 169 174 168 166 171 177 182 172 174 189 173 177 192 189 225 235 326 285 266 129 187 144 167 184 177 174 173 174 169 167 170 178 176 169 157 155 148 149 149 145 143 147 150 154 149 145 141 137 137 133 137 148 149 151 138 139 129 125 127 138 143 144 143 135 132 131 124 120 121 124 122 117 114 113 114 118 119 118 117 117 116 115 114 117 121
124 354 161 139 142 117 120 205 195 173 176 195 166 114 179 214 178 163 220 243 1 151 153 151 162 180 173 179 172 170 159 165 172 173 174 172 158 144 148 143 147 146 148 152 152 148 144 135 140 132 130 140 146 153 120 101 135 132 124 126 134 139 147 146 142 133 117 117 118 120 122 120 118 115 115 112 119 125 124 124 125 122 120 120 123 126 130
86 117 127 133 143 168 179 62 175 171 178 171 171 203 195 199 192 233 311 309 338 202 170 178 176 180 183 181 176 170 161 161 168 165 161 153 150 149 143 148 150 148 146 150 149 147 138 129 131 134 142 140 141 132 120 134 133 129 131 130 132 134 135 131 130 125 117 114 114 118 121 120 120 120 122 121 126 124 124 126 124 121 124 125 130 133 133
131 132 131 146 163 145 8 316 247 14 15 254 187 83 27 190 196 335 283 333 215 217 227 213 181 187 175 183 171 174 173 173 173 169 160 159 158 158 153 156 157 157 156 153 144 132 130 131 128 123 116 120 121 129 139 137 132 128 128 138 141 145 143 141 143 143 139 129 125 129 130 130 131 133 129 127 126 129 132 132 130 130 132 133 134 135 133
83 132 141 153 136 50 304 54 86 101 30 236 155 92 62 101 208 250 249 195 197 194 217 173 167 149 121 111 164 184 183 180 178 175 173 170 166 168 172 168 166 163 159 153 145 135 127 130 135 129 131 130 124 126 122 131 140 132 136 141 144 151 148 149 148 143 131 128 130 133 132 132 132 129 129 131 130 130 129 128 127 127 129 134 136 136 135
141 132 109 88 147 121 46 100 97 333 151 164 185 168 118 42 295 215 159 160 174 200 177 156 139 127 119 157 201 203 186 181 181 180 178 177 181 180 169 160 158 150 143 137 130 126 131 131 128 131 132 128 128 131 136 145 144 139 137 139 149 148 149 150 142 139 137 136 137 136 137 136 135 132 130 128 127 132 130 131 132 135 136 140 142 139 138
287 121 114 128 110 108 359 187 271 210 248 285 208 147 131 205 223 217 188 171 161 174 166 144 132 132 146 194 223 203 189 172 167 177 173 175 176 174 169 153 145 136 133 128 131 131 128 136 136 137 136 130 131 132 136 142 144 141 138 148 155 155 151 144 139 141 140 138 137 137 138 138 135 132 129 130 135 142 140 141 140 140 141 139 141 142 142
156 117 124 123 106 61 317 324 333 339 250 201 162 206 152 38 246 178 205 173 163 165 174 153 147 160 172 215 215 192 187 178 172 166 172 173 169 171 168 161 154 145 128 132 135 134 133 137 143 140 139 139 140 142 142 142 138 141 143 149 151 148 141 136 139 137 136 135 137 140 139 136 135 134 136 137 138 140 138 136 134 140 143 143 141 143 142
43 123 92 92 145 104 47 291 308 337 358 173 182 191 172 29 239 169 192 185 166 170 185 177 186 193 284 306 233 173 184 184 180 170 169 169 163 164 162 156 147 131 121 123 127 134 141 146 149 146 142 140 142 142 141 138 147 159 155 150 149 143 135 135 133 136 141 140 140 140 131 124 126 128 129 130 136 138 134 138 141 144 145 145 145 144 141
100 91 80 116 82 305 303 306 319 329 225 232 178 191 48 332 318 185 191 194 184 178 186 191 195 223 298 305 308 164 168 158 169 167 160 169 165 159 149 132 123 125 130 134 138 141 145 143 145 145 136 140 142 144 145 154 166 161 152 149 146 143 136 137 142 144 138 138 130 124 126 124 122 128 136 136 136 139 140 140 141 144 144 144 140 138 140
53 29 83 77 104 49 304 294 290 282 186 155 143 38 264 314 315 35 195 199 198 188 194 194 204 328 326 292 258 167 167 170 168 164 164 161 160 159 139 133 133 126 131 129 134 138 136 141 141 136 139 140 140 149 153 152 138 150 150 147 143 137 140 143 141 137 135 129 129 127 126 131 132 134 134 137 138 140 141 140 142 142 143 144 143 138 137
197 25 93 103 96 51 51 313 155 348 60 79 10 312 310 253 312 310 249 210 203 199 193 153 262 4 333 157 166 159 165 163 161 161 161 160 153 146 136 141 132 130 134 141 143 140 140 146 147 150 144 140 146 147 146 153 146 151 153 152 143 140 143 142 138 136 134 135 136 140 144 139 133 133 138 138 139 141 141 143 142 144 147 144 142 141 140
57 41 82 61 73 321 350 339 71 10 38 337 327 277 344 8 286 318 314 218 216 207 205 174 230 78 94 126 128 149 152 153 149 154 155 149 142 139 143 133 134 131 138 139 133 139 142 139 146 146 141 142 149 153 157 146 148 150 147 143 139 139 138 138 138 138 139 140 140 142 142 137 131 133 139 140 142 147 148 148 147 148 151 150 148 147 149
7 44 88 66 332 286 307 344 20 341 333 322 302 257 283 333 359 286 290 307 197 216 214 192 205 64 53 79 133 133 137 143 146 150 150 143 143 144 141 138 139 140 136 138 137 139 145 147 147 148 147 146 153 154 149 147 148 147 140 139 141 142 142 139 138 139 140 142 144 143 144 139 135 138 140 145 145 150 151 151 153 154 154 158 156 152 149
220 97 93 267 326 333 332 259 198 237 233 110 205 232 290 245 315 317 309 316 297 220 211 194 167 52 70 106 98 91 106 122 126 130 133 138 142 145 138 134 149 137 133 135 146 145 150 149 150 152 156 153 156 152 149 152 153 147 145 143 143 145 145 145 143 142 140 142 146 147 147 145 141 144 147 151 150 154 155 155 156 154 157 158 156 153 152
333 70 347 17 355 330 357 340 332 171 159 32 269 257 294 7 345 333 323 318 326 296 178 192 165 119 110 119 109 117 123 125 133 135 135 140 142 138 143 145 135 124 129 133 139 146 149 154 150 147 151 151 141 141 151 148 149 147 148 148 144 146 148 146 144 145 143 147 147 148 146 143 142 145 149 152 150 153 157 156 156 156 157 157 156 157 156
32 98 9 339 312 301 311 335 359 358 346 347 352 351 335 317 258 19 350 308 38 105 142 156 121 112 119 125 118 113 119 125 134 141 143 142 137 146 143 143 139 132 138 137 142 145 148 151 149 149 149 142 145 143 145 149 149 147 146 149 151 152 150 147 147 147 145 141 144 147 146 144 145 148 155 156 158 160 165 161 159 159 159 164 163 164 163
103 169 41 2 284 353 18 12 26 4 353 336 337 350 356 2 20 27 37 34 33 75 111 123 120 125 131 136 130 127 124 123 130 137 144 144 135 127 135 144 144 144 143 149 152 156 153 148 144 153 144 142 146 150 152 152 151 149 145 146 150 146 144 145 143 142 143 152 150 144 142 144 146 154 161 163 157 155 155 166 166 163 165 165 168 168 167
76 77 33 347 31 85 7 359 3 350 351 339 331 353 12 14 10 10 26 45 46 56 57 118 136 141 146 153 153 152 152 147 138 130 126 119 120 124 121 139 143 147 153 152 157 158 156 151 144 149 150 152 151 154 154 154 152 145 143 145 146 147 148 147 145 145 149 151 147 144 145 143 133 96 31 40 72 158 165 60 40 138 161 167 170 166 166
112 119 357 304 294 288 289 327 342 348 353 350 17 17 359 356 11 12 27 58 59 61 62 70 124 132 146 148 122 105 120 136 145 145 137 134 124 121 128 122 135 142 152 151 141 140 142 145 149 149 150 153 160 159 155 154 151 147 148 145 144 148 151 151 150 152 151 149 149 147 145 143 142 140 144 89 43 41 83 108 113 90 61 62 131 164 168
67 312 338 204 217 20 13 353 351 359 6 0 44 39 30 20 13 22 48 66 95 93 87 92 129 142 141 140 122 108 106 128 145 150 143 140 141 140 146 149 154 156 154 153 150 143 144 151 147 134 153 160 160 162 160 155 148 148 151 148 154 155 154 147 147 151 150 146 147 147 149 149 148 150 149 147 117 54 84 117 101 111 95 113 147 167 188
38 35 333 264 242 280 283 291 330 7 12 8 46 44 30 34 32 25 61 70 82 111 112 112 126 142 148 150 145 139 139 135 138 136 131 131 136 142 146 147 159 161 161 155 140 141 142 140 145 152 154 155 152 153 152 150 145 150 151 147 145 149 146 147 154 154 151 151 153 152 153 153 153 155 155 158 155 147 88 83 103 122 127 135 156 169 160
272 283 281 254 245 281 276 203 37 22 12 15 47 63 53 51 48 60 55 55 42 53 96 109 115 122 133 143 146 147 147 147 144 140 135 137 143 141 150 159 158 140 131 133 141 144 143 146 150 149 147 158 167 161 144 146 155 156 152 144 147 149 148 150 153 158 157 157 157 158 157 159 159 160 160 163 163 153 152 150 124 95 96 130 157 157 165
310 301 248 203 180 75 25 48 43 348 351 4 36 60 61 70 66 70 69 62 52 31 39 58 94 113 107 125 136 143 149 138 138 149 147 146 154 162 151 136 140 145 143 141 144 148 145 140 142 143 148 154 163 157 151 152 150 149 143 142 145 141 140 146 153 156 159 159 158 156 158 160 160 163 161 163 156 161 168 167 169 175 174 148 156 181 173
1 14 330 284 79 83 64 34 350 335 12 18 15 37 55 86 76 64 53 45 41 46 56 53 59 96 97 117 122 112 121 144 149 140 142 144 143 138 140 138 130 132 136 139 137 135 135 141 141 143 148 150 151 158 148 146 142 145 144 140 137 147 154 154 153 158 160 163 161 160 161 164 165 165 161 161 164 172 171 169 171 170 160 145 142 144 166
11 23 29 38 44 72 110 202 37 35 35 24 36 38 24 55 50 51 49 42 22 33 47 54 62 66 96 114 124 139 151 150 144 145 138 110 113 116 117 117 115 110 113 113 118 128 138 147 155 155 152 156 150 149 136 112 112 140 139 140 144 148 155 164 163 157 159 159 164 163 163 156 157 160 163 167 173 175 175 179 176 173 156 135 132 133 157
9 9 47 41 40 75 62 39 26 20 30 13 33 36 25 36 54 47 39 31 20 41 26 38 75 86 103 114 120 151 153 148 139 120 118 118 116 118 115 109 100 86 92 112 133 144 151 152 153 154 154 156 150 152 146 143 148 155 159 152 151 153 155 156 152 153 152 160 155 146 152 160 164 163 167 173 178 179 178 179 170 161 153 157 163 162 166
34 42 54 52 57 58 67 60 47 40 34 27 40 47 31 41 56 46 31 23 33 34 11 32 68 95 103 112 127 115 103 108 117 121 118 121 126 131 136 139 140 158 169 166 158 159 157 156 145 137 139 152 148 147 145 142 143 148 147 157 152 155 152 153 159 161 158 148 146 160 162 164 166 164 165 171 172 181 178 168 167 173 169 164 172 173 170
78 59 53 46 48 64 61 49 57 48 40 31 44 44 30 32 34 28 19 24 18 357 357 27 41 74 95 110 120 122 118 113 109 116 127 131 137 144 151 149 138 139 138 142 147 148 143 139 145 148 149 149 153 151 153 153 149 150 154 148 144 134 147 156 159 162 156 155 157 162 162 167 167 168 165 170 175 174 170 167 174 174 173 170 175 179 163
82 81 62 47 59 61 59 41 51 48 40 50 51 43 33 26 28 22 20 2 3 23 33 40 23 29 92 122 125 122 120 114 110 120 136 144 147 150 147 128 132 144 147 155 159 158 159 161 157 157 161 158 156 153 154 155 153 155 151 146 146 146 150 168 161 155 156 157 164 168 166 169 159 165 172 173 171 166 169 171 168 169 176 181 182 171 166
59 65 67 36 31 58 65 56 44 67 64 57 47 39 37 31 30 27 24 22 30 26 19 10 352 5 27 129 126 130 130 126 131 144 137 138 146 145 138 130 125 122 130 144 145 142 150 144 141 157 159 157 154 156 150 151 150 147 144 136 132 134 152 146 149 159 157 169 168 164 162 155 159 169 164 170 168 171 167 167 166 172 175 179 168 155 127
73 73 59 53 45 49 53 59 52 51 53 54 43 40 32 25 24 24 10 24 26 5 350 348 345 324 104 74 138 143 158 155 143 139 146 142 142 141 137 131 127 125 125 142 155 152 139 142 151 151 144 142 147 152 152 146 147 146 143 142 148 150 146 142 153 157 166 162 154 159 160 164 168 164 161 164 168 167 167 170 168 174 175 169 158 139 145
81 80 67 63 48 52 56 55 48 52 59 60 53 39 30 20 13 16 13 6 339 346 347 12 27 8 40 132 165 169 152 134 131 133 133 134 125 126 125 129 136 135 137 137 142 129 139 145 153 153 153 145 140 140 145 140 130 136 136 135 135 135 142 155 155 146 143 148 160 161 168 162 153 155 162 170 167 170 172 172 175 176 179 168 159 153 148
39 91 94 75 52 47 46 35 24 32 46 48 43 35 29 21 10 346 325 330 346 1 3 347 9 6 325 337 22 15 13 125 137 138 134 133 138 140 140 144 150 152 153 166 179 152 152 149 152 148 145 148 150 145 148 149 136 132 137 140 141 147 152 152 152 156 159 166 168 155 146 148 164 161 167 173 171 176 172 170 168 171 172 163 153 153 152
33 47 71 71 60 61 53 34 39 45 49 55 47 35 18 357 343 337 337 335 340 354 342 4 24 20 80 97 85 86 90 113 131 133 138 147 155 144 141 151 160 154 170 175 161 157 146 147 151 149 148 150 152 142 148 151 142 143 146 147 148 152 161 163 165 164 162 167 167 158 168 172 165 165 169 172 167 167 171 171 165 166 162 152 152 155 161
94 91 90 89 67 58 65 63 41 32 28 29 18 21 13 347 331 325 343 343 339 345 347 15 55 85 101 110 119 113 143 152 143 140 146 151 156 152 154 158 164 168 133 124 146 145 138 150 156 150 148 142 134 133 147 151 150 145 143 143 148 154 154 155 161 164 176 164 161 161 162 161 158 154 158 168 165 163 175 182 175 174 168 161 155 160 163
114 106 92 97 76 57 73 59 43 30 18 16 23 16 354 352 2 10 10 3 356 342 342 11 29 59 133 161 149 161 167 161 155 153 150 147 143 122 111 94 88 104 123 134 139 136 147 154 149 138 137 135 138 137 147 153 151 138 143 147 151 150 149 148 152 159 156 150 160 163 155 158 160 161 160 161 161 169 170 176 182 175 165 152 158 153 156
143 96 19 149 134 132 81 63 44 3 340 353 10 6 1 6 1 22 25 7 345 343 357 350 23 79 112 167 147 117 143 152 158 151 145 144 146 151 153 149 145 137 149 157 150 141 151 155 146 139 129 137 133 143 142 152 149 146 150 150 150 150 148 152 158 161 158 164 163 170 167 160 152 161 160 164 167 166 166 170 169 168 167 171 168 163 182
142 134 233 321 19 29 58 88 306 33 32 4 350 348 10 17 17 19 353 335 336 351 4 29 17 21 106 112 102 105 110 127 130 133 152 155 157 158 154 153 151 160 136 124 128 140 152 151 139 142 136 136 134 151 147 150 144 141 142 145 146 146 152 158 160 163 166 169 171 174 158 154 156 156 153 156 156 161 159 155 159 164 164 159 175 191 190
155 177 184 263 122 111 281 344 2 27 352 18 12 1 354 8 19 23 28 354 348 347 6 32 70 96 119 126 129 134 143 135 128 132 109 73 54 30 133 151 153 153 143 146 149 155 162 164 146 137 145 146 145 149 148 142 138 141 140 140 141 152 157 158 158 148 156 162 167 168 160 163 158 156 158 164 166 162 159 163 170 168 168 180 199 195 201
151 180 221 222 95 112 257 275 124 246 47 57 19 342 6 23 23 10 14 18 11 357 346 4 41 75 106 142 144 146 152 160 165 169 165 153 127 70 94 148 149 140 145 143 153 158 157 153 145 134 137 139 143 146 144 141 141 142 145 145 142 155 159 162 157 155 162 166 168 171 170 172 166 162 158 154 152 157 162 162 166 166 177 191 201 198 194
129 155 267 336 63 114 228 305 27 21 19 322 342 5 16 27 25 12 7 11 7 359 343 336 355 62 117 139 140 127 148 162 170 166 162 153 164 154 122 122 133 139 147 141 143 145 150 140 129 134 135 139 142 140 132 133 134 133 135 137 144 151 153 157 156 157 158 161 166 166 167 172 168 160 160 157 159 157 167 171 180 180 180 188 182 184 185
155 132 131 186 166 175 198 50 55 140 304 312 36 65 11 13 27 27 18 13 12 351 344 345 338 360 77 116 115 119 115 106 72 28 19 28 115 146 144 140 148 139 138 140 141 138 133 130 134 135 138 141 142 139 131 132 128 135 137 140 141 138 148 158 159 158 161 164 165 172 174 168 158 162 159 150 164 167 180 182 176 176 183 183 182 178 169
126 122 168 176 89 95 113 109 145 171 314 347 16 20 13 6 16 24 17 349 348 13 8 358 357 360 113 134 143 145 143 136 119 82 71 94 101 117 120 116 125 129 132 137 130 132 137 133 134 136 138 138 134 120 123 131 137 139 138 141 141 139 140 151 155 153 149 154 163 158 145 148 146 137 130 136 148 170 160 171 187 178 164 158 148 152 163
129 129 153 159 154 150 146 145 171 35 22 2 345 345 357 8 7 15 10 10 4 26 58 51 38 31 5 283 35 32 148 154 145 135 116 121 126 130 138 145 138 116 104 92 92 104 123 132 135 137 134 131 126 122 119 136 139 140 144 138 145 148 153 153 158 154 150 142 143 143 145 159 154 149 156 173 177 178 176 170 171 158 159 166 166 161 152
360 108 112 106 126 129 132 232 344 21 28 314 258 28 120 106 57 24 16 24 25 36 59 60 61 74 132 177 254 142 88 34 50 157 152 146 141 138 135 121 125 125 121 119 118 114 133 134 138 138 134 129 129 137 146 145 149 155 155 155 158 159 159 158 150 138 131 133 145 159 173 174 174 170 176 179 174 165 159 157 149 160 160 142 126 120 114
139 145 143 179 193 202 193 220 343 20 4 255 317 123 158 194 249 81 71 40 24 354 34 58 61 66 85 164 160 100 68 74 86 116 133 136 136 134 136 135 133 126 123 121 120 118 132 133 136 134 133 129 135 138 139 135 137 140 135 141 147 156 158 141 128 130 136 144 156 166 172 182 180 180 164 160 156 147 145 132 113 91 94 104 114 116 116
210 210 215 190 203 15 164 280 347 312 336 352 301 153 189 234 333 102 154 172 160 44 48 48 356 324 322 67 96 92 78 83 101 129 133 130 126 126 128 128 127 124 122 123 128 134 135 137 133 129 139 138 127 130 126 133 136 146 151 156 151 142 129 131 144 161 179 182 183 178 170 163 169 164 157 144 135 131 127 123 127 132 129 116 113 113 110
249 294 315 295 250 241 253 232 226 229 219 186 201 195 212 256 227 192 155 201 250 67 115 149 240 300 314 145 114 89 80 101 122 122 118 124 130 131 125 122 119 119 124 127 131 135 132 127 129 146 141 124 117 118 127 138 138 136 126 125 148 148 158 169 175 186 190 189 179 171 175 174 159 151 143 135 130 124 121 121 118 114 111 107 104 105 108